• In France
  • List of Countries
  • For 7 days
  • Water Temperature
  • Satellite Maps
  • Weather Map
  • Weather Widgets
  • user-avatar
    Login

    Hourly Weather Adilotar

    Today, 17 October, Wednesday

    Time Temperature Precipitation Wind Pressure Humidity
    00:00 +14°C° 0 mm 4 mps 769 mmHg 86%
    01:00 +14°C° 0 mm 4 mps 768 mmHg 86%
    02:00 +14°C° 0 mm 3 mps 768 mmHg 87%
    03:00 +14°C° 0 mm 4 mps 768 mmHg 84%
    04:00 +14°C° 0 mm 4 mps 768 mmHg 85%
    05:00 +14°C° 0 mm 4 mps 768 mmHg 85%
    06:00 +14°C° 0 mm 3 mps 768 mmHg 86%
    07:00 +17°C° 0 mm 4 mps 768 mmHg 78%
    08:00 +19°C° 0 mm 4 mps 768 mmHg 69%
    09:00 +21°C° 0 mm 5 mps 768 mmHg 61%
    10:00 +22°C° 0 mm 5 mps 768 mmHg 58%
    11:00 +23°C° 0 mm 5 mps 767 mmHg 55%
    12:00 +24°C° 0 mm 6 mps 767 mmHg 53%
    13:00 +23°C° 0 mm 6 mps 767 mmHg 54%
    14:00 +23°C° 0 mm 6 mps 767 mmHg 56%
    15:00 +23°C° 0 mm 6 mps 766 mmHg 58%
    16:00 +21°C° 0 mm 5 mps 766 mmHg 66%
    17:00 +19°C° 0 mm 5 mps 766 mmHg 75%
    18:00 +18°C° 0 mm 4 mps 766 mmHg 84%
    19:00 +17°C° 0 mm 4 mps 766 mmHg 86%
    20:00 +17°C° 0 mm 3 mps 766 mmHg 89%
    21:00 +16°C° 0 mm 3 mps 766 mmHg 91%
    22:00 +16°C° 0 mm 3 mps 766 mmHg 91%
    23:00 +16°C° 0 mm 3 mps 766 mmHg 92%

    Tomorrow, 18 October, Thursday

    Time Temperature Precipitation Wind Pressure Humidity
    00:00 +15°C° 0 mm 2 mps 766 mmHg 92%
    01:00 +15°C° 0 mm 2 mps 766 mmHg 91%
    02:00 +15°C° 0 mm 2 mps 766 mmHg 91%
    03:00 +15°C° 0 mm 2 mps 766 mmHg 91%
    04:00 +15°C° 0 mm 2 mps 766 mmHg 90%
    05:00 +15°C° 0 mm 2 mps 766 mmHg 89%
    06:00 +15°C° 0 mm 2 mps 766 mmHg 88%
    07:00 +16°C° 0 mm 2 mps 766 mmHg 82%
    08:00 +18°C° 0 mm 2 mps 766 mmHg 75%
    09:00 +20°C° 0 mm 2 mps 766 mmHg 69%
    10:00 +21°C° 0 mm 3 mps 766 mmHg 63%
    11:00 +22°C° 0 mm 3 mps 766 mmHg 58%
    12:00 +23°C° 0 mm 4 mps 765 mmHg 52%
    13:00 +23°C° 0 mm 4 mps 765 mmHg 53%
    14:00 +23°C° 0 mm 5 mps 765 mmHg 55%
    15:00 +23°C° 0 mm 5 mps 765 mmHg 56%
    16:00 +21°C° 0 mm 5 mps 765 mmHg 65%
    17:00 +19°C° 0 mm 4 mps 765 mmHg 74%
    18:00 +18°C° 0 mm 4 mps 765 mmHg 83%
    19:00 +17°C° 0 mm 4 mps 765 mmHg 85%
    20:00 +17°C° 0 mm 4 mps 765 mmHg 88%
    21:00 +15°C° 0 mm 4 mps 766 mmHg 90%
    22:00 +15°C° 0 mm 4 mps 765 mmHg 90%
    23:00 +15°C° 0 mm 4 mps 765 mmHg 90%

    Day after tomorrow, 19 October, Friday

    Time Temperature Precipitation Wind Pressure Humidity
    00:00 +15°C° 0 mm 4 mps 765 mmHg 89%
    01:00 +15°C° 0 mm 4 mps 765 mmHg 88%
    02:00 +15°C° 0 mm 4 mps 765 mmHg 87%
    03:00 +15°C° 0 mm 4 mps 765 mmHg 86%
    04:00 +15°C° 0 mm 4 mps 765 mmHg 85%
    05:00 +15°C° 0 mm 4 mps 764 mmHg 84%
    06:00 +15°C° 0 mm 4 mps 764 mmHg 83%
    07:00 +18°C° 0 mm 4 mps 764 mmHg 76%
    08:00 +19°C° 0 mm 5 mps 764 mmHg 69%
    09:00 +21°C° 0 mm 5 mps 765 mmHg 62%
    10:00 +22°C° 0 mm 6 mps 764 mmHg 58%
    11:00 +23°C° 0 mm 6 mps 764 mmHg 55%
    12:00 +24°C° 0 mm 7 mps 764 mmHg 51%
    13:00 +24°C° 0 mm 7 mps 763 mmHg 53%
    14:00 +23°C° 0 mm 7 mps 763 mmHg 55%
    15:00 +23°C° 0 mm 7 mps 763 mmHg 57%
    16:00 +21°C° 0 mm 6 mps 763 mmHg 64%
    17:00 +20°C° 0 mm 6 mps 763 mmHg 72%
    18:00 +17°C° 0 mm 5 mps 763 mmHg 80%
    19:00 +17°C° 0 mm 5 mps 763 mmHg 81%
    20:00 +17°C° 0 mm 5 mps 763 mmHg 81%
    21:00 +16°C° 0 mm 5 mps 763 mmHg 82%
    22:00 +16°C° 0 mm 5 mps 763 mmHg 82%
    23:00 +17°C° 0 mm 4 mps 762 mmHg 81%

    20 October, Saturday

    Time Temperature Precipitation Wind Pressure Humidity
    00:00 +17°C° 0 mm 4 mps 762 mmHg 81%
    01:00 +17°C° 0 mm 4 mps 762 mmHg 81%
    02:00 +15°C° 0 mm 4 mps 762 mmHg 80%
    03:00 +16°C° 0 mm 3 mps 762 mmHg 80%
    04:00 +16°C° 0 mm 3 mps 761 mmHg 79%
    05:00 +16°C° 0 mm 3 mps 761 mmHg 79%
    06:00 +16°C° 0 mm 3 mps 761 mmHg 78%
    07:00 +18°C° 0 mm 3 mps 761 mmHg 70%
    08:00 +19°C° 0 mm 3 mps 761 mmHg 63%
    09:00 +21°C° 0 mm 2 mps 761 mmHg 55%
    10:00 +24°C° 0 mm 3 mps 761 mmHg 50%
    11:00 +25°C° 0 mm 3 mps 760 mmHg 46%
    12:00 +26°C° 0 mm 3 mps 760 mmHg 41%
    13:00 +26°C° 0 mm 3 mps 760 mmHg 42%
    14:00 +26°C° 0 mm 3 mps 760 mmHg 43%
    15:00 +26°C° 0 mm 3 mps 760 mmHg 43%
    16:00 +24°C° 0 mm 3 mps 760 mmHg 53%
    17:00 +21°C° 0 mm 2 mps 760 mmHg 62%
    18:00 +19°C° 0 mm 2 mps 761 mmHg 71%
    19:00 +19°C° 0 mm 2 mps 761 mmHg 72%
    20:00 +18°C° 0 mm 2 mps 761 mmHg 73%
    21:00 +19°C° 0 mm 1 mps 761 mmHg 74%
    22:00 +19°C° 0 mm 1 mps 761 mmHg 72%
    23:00 +18°C° 0 mm 1 mps 760 mmHg 70%

    21 October, Sunday

    Time Temperature Precipitation Wind Pressure Humidity
    00:00 +18°C° 0 mm 1 mps 760 mmHg 68%
    01:00 +18°C° 0 mm 1 mps 760 mmHg 67%
    02:00 +18°C° 0 mm 1 mps 760 mmHg 66%
    03:00 +16°C° 0 mm 1 mps 760 mmHg 64%
    04:00 +16°C° 0 mm 1 mps 760 mmHg 64%
    05:00 +16°C° 0 mm 1 mps 760 mmHg 64%
    06:00 +16°C° 0 mm 1 mps 760 mmHg 64%
    07:00 +19°C° 0 mm 1 mps 760 mmHg 59%
    08:00 +20°C° 0 mm 1 mps 760 mmHg 54%
    09:00 +22°C° 0 mm 1 mps 760 mmHg 49%
    10:00 +23°C° 0 mm 1 mps 760 mmHg 46%
    11:00 +24°C° 0 mm 1 mps 760 mmHg 44%
    12:00 +25°C° 0 mm 1 mps 760 mmHg 41%
    13:00 +25°C° 0 mm 2 mps 759 mmHg 41%
    14:00 +25°C° 0 mm 2 mps 759 mmHg 42%
    15:00 +26°C° 0 mm 2 mps 759 mmHg 42%
    16:00 +24°C° 0 mm 2 mps 759 mmHg 51%
    17:00 +21°C° 0 mm 2 mps 760 mmHg 60%
    18:00 +20°C° 0 mm 2 mps 760 mmHg 68%
    19:00 +19°C° 0 mm 2 mps 760 mmHg 72%
    20:00 +18°C° 0 mm 2 mps 760 mmHg 76%
    21:00 +18°C° 0 mm 2 mps 760 mmHg 80%
    22:00 +18°C° 0 mm 2 mps 760 mmHg 82%
    23:00 +17°C° 0 mm 2 mps 760 mmHg 84%

    22 October, Monday

    Time Temperature Precipitation Wind Pressure Humidity
    00:00 +17°C° 0 mm 2 mps 760 mmHg 85%
    01:00 +17°C° 0 mm 2 mps 760 mmHg 86%
    02:00 +17°C° 0 mm 2 mps 760 mmHg 87%
    03:00 +17°C° 0 mm 2 mps 760 mmHg 87%
    04:00 +16°C° 0 mm 2 mps 760 mmHg 87%
    05:00 +16°C° 0 mm 1 mps 760 mmHg 87%
    06:00 +16°C° 0 mm 1 mps 760 mmHg 87%
    07:00 +19°C° 0 mm 1 mps 761 mmHg 80%
    08:00 +19°C° 0 mm 2 mps 761 mmHg 73%
    09:00 +20°C° 0 mm 2 mps 761 mmHg 66%
    10:00 +23°C° 0 mm 2 mps 761 mmHg 59%
    11:00 +24°C° 0 mm 3 mps 761 mmHg 52%
    12:00 +25°C° 0 mm 3 mps 761 mmHg 45%
    13:00 +25°C° 0 mm 3 mps 761 mmHg 45%
    14:00 +25°C° 0 mm 3 mps 761 mmHg 44%
    15:00 +25°C° 0 mm 4 mps 760 mmHg 44%
    16:00 +22°C° 0 mm 3 mps 761 mmHg 52%
    17:00 +21°C° 0 mm 3 mps 761 mmHg 60%
    18:00 +19°C° 0 mm 2 mps 762 mmHg 67%
    19:00 +19°C° 0.1 mm 2 mps 762 mmHg 72%
    20:00 +18°C° 0.1 mm 2 mps 762 mmHg 76%
    21:00 +18°C° 0.1 mm 2 mps 762 mmHg 81%
    22:00 +18°C° 0 mm 2 mps 762 mmHg 83%
    23:00 +17°C° 0 mm 2 mps 762 mmHg 85%
    Show more